Location: Baia Mare
(47.6567°N, 23.5850°E)
Time: 06:01:05
(UTC+02:00)

ISS - Pass Details

Date: 04 February 2018
Orbit: 402 x 407 km, 51.6° (Epoch: 24 February)

Event Time Altitude Azimuth Distance (km) Brightness Sun altitude
Rises 20:04:03 0° 292° (WNW) 2,321 1.2 -26.0°
Reaches altitude 10° 20:06:09 10° 296° (WNW) 1,461 -0.1 -26.3°
Enters shadow 20:07:25 21° 302° (WNW) 966 -1.3 -26.5°
